{"data":{"norad_id":60563,"intl_designator":"2024-149CZ","name":"FLOCK 4BE-19","alt_names":[],"object_type":"PAYLOAD","status":"ACTIVE","operator":null,"country":"US","launch_date":"2024-08-16","launch_site_code":"AFWTR","launch_vehicle":null,"mission":null,"orbit_class":"UNKNOWN","rcs_meters":null,"size_class":null,"mass_kg":null,"dimensions":null,"purposes":["earth_obs"],"wikipedia_slug":null,"has_3d_model":false,"image_url":null,"decayed_at":null,"tle_current":{"epoch":"2026-05-25T04:22:33.623904Z","epoch_age_seconds":62817,"freshness":"FRESH","line1":"1 60563U 24149CZ  26145.18233361  .00017533  00000+0  39609-3 0  9993","line2":"2 60563  97.3742 230.3128 0004076  35.3207 324.8310 15.43244270 98875","mean_motion":15.4324427,"eccentricity":0.0004076,"inclination_deg":97.3742,"raan_deg":230.3128,"arg_perigee_deg":35.3207,"mean_anomaly_deg":324.831,"bstar":0.00039609,"rev_number":9887,"period_min":93.309920405536,"perigee_km":433.7641645278,"apogee_km":439.31949070808,"semimajor_km":6814.6788276179,"source":"CELESTRAK","updated_at":"2026-05-25T13:38:13.335375Z"}}}